Knoxville, TN

6:06 AM EST on December 16, 2019 (GMT -0500)
McGhee Tyson

Weather History for KTYS - November, 2019

Change the Weather History Date:

Friday, November 22, 2019

  Actual Average Record
Temperature  
Mean Temperature 55 °F 47 °F  
Max Temperature 58 °F 58 °F 77 °F (1931)
Min Temperature 52 °F 37 °F 15 °F (2008)
Degree Days  
Heating Degree Days 10 18  
Month to date heating degree days 427 310  
Since 1 July heating degree days 558 529  
Cooling Degree Days 0 0  
Month to date cooling degree days 0 0  
Year to date cooling degree days 1967 1523  
Growing Degree Days 5 (Base 50)    
Moisture  
Dew Point 49 °F    
Average Humidity 80    
Maximum Humidity 94    
Minimum Humidity 47    
Precipitation  
Precipitation 0.07 in 0.14 in 2.62 in (1883)
Month to date precipitation 1.27 2.79  
Year to date precipitation 54.49 42.14  
Snow  
Snow 0.00 in 0.00 in - ()
Month to date snowfall 1.7 0.0  
Since 1 July snowfall 1.7 0.0  
Since 1 September snowfall 1.7 0.0  
Snow Depth 0.00 in    
Sea Level Pressure  
Sea Level Pressure 30.02 in    
Wind  
Wind Speed 7 mph ()    
Max Wind Speed 15 mph    
Max Gust Speed 19 mph    
Visibility 6.3 miles    
Events Rain    
T = Trace of Precipitation, MM = Missing Value Source: Averaged Metar Reports

Daily Weather History Graph

Daily Weather History Graph

Search for Another Location

Airport or City:

Astronomy

Nov. 22, 2019 Rise Set
Actual Time 7:18 AM EST 5:25 PM EST
Civil Twilight 6:51 AM EST 5:52 PM EST
Nautical Twilight 6:19 AM EST 6:23 PM EST
Astronomical Twilight 5:49 AM EST 6:54 PM EST
Moon 2:35 AM EST (11/22) 3:14 PM EST (11/22)
Length of Visible Light 11h 01m
Length of Day
10h 06m
Waning Crescent, 20% of the Moon is Illuminated
Nov 22
Waning Crescent
Nov 26
New
Dec 4
First Quarter
Dec 12
Full
Dec 18
Last Quarter

Hourly Weather History & Observations

Time (EST) Temp. Dew Point Humidity Pressure Visibility Wind Dir Wind Speed Gust Speed Precip Events Conditions
12:53 AM 55.0 °F 41.0 °F 59% 30.06 in 10.0 mi SSW 8.1 mph - N/A   Overcast
1:53 AM 57.0 °F 39.0 °F 51% 30.04 in 10.0 mi SW 10.4 mph - N/A   Overcast
2:53 AM 57.0 °F 39.0 °F 51% 30.02 in 10.0 mi SW 6.9 mph - N/A   Overcast
3:53 AM 57.9 °F 37.9 °F 47% 30.02 in 10.0 mi WSW 11.5 mph - N/A   Overcast
4:53 AM 57.0 °F 39.9 °F 53% 30.03 in 10.0 mi West 10.4 mph - 0.00 in Rain Light Rain
5:53 AM 54.0 °F 44.1 °F 69% 30.03 in 10.0 mi NW 6.9 mph - 0.01 in   Overcast
6:53 AM 55.0 °F 44.1 °F 67% 30.09 in 9.0 mi West 9.2 mph - 0.00 in Rain Rain
7:53 AM 53.1 °F 46.0 °F 77% 30.06 in 10.0 mi SSE 10.4 mph - 0.00 in   Mostly Cloudy
8:53 AM 55.0 °F 46.9 °F 74% 30.04 in 10.0 mi SSW 6.9 mph - N/A   Overcast
9:15 AM 57.0 °F 46.9 °F 69% 30.06 in 9.0 mi WSW 8.1 mph - N/A   Overcast
9:53 AM 57.9 °F 48.0 °F 70% 30.04 in 10.0 mi SW 9.2 mph - 0.00 in   Overcast
10:53 AM 55.0 °F 46.9 °F 74% 30.07 in 10.0 mi WNW 9.2 mph - N/A   Overcast
11:18 AM 53.1 °F 48.0 °F 83% 30.07 in 2.0 mi West 6.9 mph - 0.01 in Rain Rain
11:28 AM 53.1 °F 48.0 °F 83% 30.07 in 4.0 mi WNW 6.9 mph - 0.01 in Rain Light Rain
11:53 AM 54.0 °F 48.9 °F 83% 30.04 in 7.0 mi WSW 4.6 mph - 0.01 in   Overcast
11:59 AM 54.0 °F 48.9 °F 83% 30.05 in 7.0 mi SW 3.5 mph - N/A   Overcast
12:53 PM 55.9 °F 51.1 °F 84% 29.99 in 7.0 mi South 9.2 mph - 0.01 in Rain Light Rain
1:47 PM 57.2 °F 53.6 °F 88% 30.00 in 8.0 mi West 8.1 mph - 0.01 in Rain Light Rain
1:53 PM 57.0 °F 53.1 °F 87% 29.99 in 8.0 mi West 9.2 mph - 0.01 in Rain Light Rain
1:58 PM 57.0 °F 53.1 °F 87% 30.00 in 9.0 mi West 6.9 mph - 0.00 in Rain Light Rain
2:53 PM 55.9 °F 52.0 °F 87% 29.99 in 7.0 mi NNW 8.1 mph - 0.00 in   Overcast
3:14 PM 55.9 °F 52.0 °F 87% 29.99 in 5.0 mi NNW 8.1 mph - 0.00 in Rain Light Rain
3:32 PM 55.4 °F 51.8 °F 88% 30.00 in 5.0 mi NNW 8.1 mph - N/A   Overcast
3:53 PM 55.9 °F 51.1 °F 84% 29.99 in 5.0 mi NNW 6.9 mph - 0.00 in   Haze
4:33 PM 55.0 °F 51.1 °F 86% 30.02 in 2.0 mi North 5.8 mph - 0.01 in Rain Rain
4:53 PM 54.0 °F 52.0 °F 93% 30.00 in 1.5 mi NE 4.6 mph - 0.03 in Rain Light Rain
5:53 PM 54.0 °F 52.0 °F 93% 30.01 in 2.0 mi ESE 3.5 mph - 0.00 in   Overcast
6:48 PM 53.6 °F 51.8 °F 94% 30.02 in 3.0 mi NNE 3.5 mph - N/A   Overcast
6:53 PM 54.0 °F 52.0 °F 93% 30.01 in 3.0 mi North 4.6 mph - N/A   Overcast
7:53 PM 54.0 °F 52.0 °F 93% 30.01 in 4.0 mi NNE 4.6 mph - N/A   Overcast
8:53 PM 54.0 °F 52.0 °F 93% 30.01 in 3.0 mi NNE 4.6 mph - N/A   Overcast
9:15 PM 54.0 °F 52.0 °F 93% 30.00 in 3.0 mi NE 4.6 mph - N/A   Overcast
9:53 PM 54.0 °F 52.0 °F 93% 30.00 in 3.0 mi North 5.8 mph - N/A   Overcast
10:53 PM 54.0 °F 52.0 °F 93% 30.00 in 3.0 mi NE 5.8 mph - N/A   Overcast
11:53 PM 54.0 °F 52.0 °F 93% 29.98 in 2.5 mi ENE 3.5 mph - N/A   Overcast